Flag for U.S.A. Weather past 2 weeks in Canton, Ohio, U.S.A.

54 °F

Passing clouds.

Feels Like: 50 °F
Forecast: 52 / 62 °F
Wind: 16 mph from Southwest

Location: Akron-Canton Regional Airport

Current Time: Nov 27, 2015 at 7:01:58 AM

Latest Report: Nov 27, 2015 at 5:51 AM

Visibility: 10 mi

Pressure: 30.37 "Hg

Humidity: 62%

Dew point: 41 °F

Location of CantonLocation

Historic Weather in Canton — Graph


Canton temperature yesterday

Maximum temperature yesterday: 63 °F (at 2:51 PM)
Minimum temperature yesterday: 45 °F (at 12:51 AM)
Average temperature yesterday: 54 °F

Past Weeks' High & Low Weather Summary

High70 °F (Nov 18, 2:51 PM)86% (Nov 12, 5:51 AM)30.58 "Hg (Nov 12, 5:51 AM)
Low19 °F (Nov 23, 5:51 AM)18% (Nov 20, 12:51 PM)29.50 "Hg (Nov 12, 9:51 AM)
Average46 °F54%30.17 "Hg
* Reported Nov 12 5:51 AM — Nov 27 5:51 AM, Canton, Weather by CustomWeather, © 2015

Note: Actual official high and low records may vary slightly from our data, if they occured in-between our weather recording intervals... More about our weather records


Canton weather history for previous 24 hours

Time TempWeatherWind HumidityBarometerVisibility
5:51 AM
Fri, Nov 27
54 °FPassing clouds.16 mph62%30.37 "Hg10 mi
4:51 AM54 °FPassing clouds.12 mph62%30.38 "Hg10 mi
3:51 AM54 °FPassing clouds.10 mph59%30.39 "Hg10 mi
2:51 AM55 °FPassing clouds.13 mph57%30.41 "Hg10 mi
1:51 AM56 °FPassing clouds.15 mph53%30.41 "Hg10 mi
12:51 AM55 °FPassing clouds.13 mph53%30.43 "Hg10 mi
11:51 PM
Thu, Nov 26
55 °FPassing clouds.13 mph53%30.44 "Hg10 mi
10:51 PM57 °FPassing clouds.15 mph49%30.44 "Hg10 mi
9:51 PM54 °FPassing clouds.9 mph57%30.45 "Hg10 mi
8:51 PM53 °FPassing clouds.10 mph59%30.46 "Hg10 mi
7:51 PM56 °FPassing clouds.13 mph53%30.47 "Hg10 mi
6:51 PM56 °FPassing clouds.12 mph53%30.47 "Hg10 mi
5:51 PM55 °FPassing clouds.9 mph55%30.48 "Hg10 mi
4:51 PM61 °FPartly sunny.13 mph46%30.46 "Hg10 mi
3:51 PM62 °FPartly sunny.13 mph44%30.48 "Hg10 mi
2:51 PM63 °FBroken clouds.15 mph41%30.48 "Hg10 mi
1:51 PM61 °FPartly sunny.15 mph42%30.51 "Hg10 mi
12:51 PM60 °FBroken clouds.15 mph42%30.53 "Hg10 mi
11:51 AM61 °FBroken clouds.21 mph39%30.56 "Hg10 mi
10:51 AM58 °FBroken clouds.17 mph41%30.57 "Hg10 mi
9:51 AM54 °FBroken clouds.18 mph43%30.58 "Hg10 mi
8:51 AM49 °FBroken clouds.14 mph48%30.58 "Hg10 mi
7:51 AM47 °FPartly sunny.15 mph50%30.57 "Hg10 mi
Weather by CustomWeather, © 2015

See weather overviewHow to use our weather pages